When you browse on this site, cookies collect data to enhance your experience and personalize the content and advertising you see.
Visit our Privacy Policy to learn more. By continuing to use the site, you agree to this use of cookies and data.

Météo par heure à Abomey

Ce jour, 21 Septembre, Lundi

Heure Température Précipitation Vent Pression Humidité
00:00 +24°C° 0 mm 1 m/s 740 mmHg 97%
01:00 +24°C° 0 mm 1 m/s 739 mmHg 97%
02:00 +24°C° 0 mm 1 m/s 739 mmHg 97%
03:00 +24°C° 0 mm 1 m/s 739 mmHg 97%
04:00 +24°C° 0 mm 1 m/s 739 mmHg 97%
05:00 +24°C° 0 mm 1 m/s 739 mmHg 97%
06:00 +24°C° 0 mm 1 m/s 739 mmHg 97%
07:00 +25°C° 0.1 mm 2 m/s 740 mmHg 93%
08:00 +25°C° 0.1 mm 2 m/s 740 mmHg 90%
09:00 +26°C° 0.1 mm 2 m/s 741 mmHg 86%
10:00 +28°C° 0.3 mm 2 m/s 741 mmHg 80%
11:00 +29°C° 0.3 mm 2 m/s 740 mmHg 74%
12:00 +31°C° 0.3 mm 2 m/s 740 mmHg 68%
13:00 +31°C° 0.3 mm 2 m/s 739 mmHg 69%
14:00 +31°C° 0.3 mm 3 m/s 739 mmHg 70%
15:00 +30°C° 0.3 mm 3 m/s 738 mmHg 71%
16:00 +29°C° 1.5 mm 3 m/s 738 mmHg 78%
17:00 +28°C° 1.5 mm 2 m/s 738 mmHg 84%
18:00 +26°C° 1.5 mm 2 m/s 739 mmHg 91%
19:00 +26°C° 0.9 mm 2 m/s 739 mmHg 92%
20:00 +25°C° 0.9 mm 2 m/s 740 mmHg 94%
21:00 +24°C° 0.9 mm 2 m/s 740 mmHg 95%
22:00 +24°C° 0.1 mm 3 m/s 740 mmHg 95%
23:00 +24°C° 0.1 mm 3 m/s 740 mmHg 95%

Demain, 22 Septembre, Mardi

Heure Température Précipitation Vent Pression Humidité
00:00 +24°C° 0.1 mm 3 m/s 740 mmHg 95%
01:00 +24°C° 0 mm 3 m/s 740 mmHg 95%
02:00 +24°C° 0 mm 3 m/s 739 mmHg 95%
03:00 +24°C° 0 mm 2 m/s 739 mmHg 95%
04:00 +23°C° 0 mm 2 m/s 739 mmHg 96%
05:00 +23°C° 0 mm 2 m/s 739 mmHg 96%
06:00 +23°C° 0 mm 2 m/s 740 mmHg 97%
07:00 +25°C° 0.1 mm 2 m/s 740 mmHg 92%
08:00 +26°C° 0.1 mm 2 m/s 741 mmHg 87%
09:00 +27°C° 0.1 mm 2 m/s 742 mmHg 82%
10:00 +28°C° 0.3 mm 2 m/s 741 mmHg 79%
11:00 +29°C° 0.3 mm 2 m/s 740 mmHg 76%
12:00 +30°C° 0.3 mm 1 m/s 740 mmHg 72%
13:00 +30°C° 1.5 mm 1 m/s 739 mmHg 73%
14:00 +30°C° 1.5 mm 1 m/s 738 mmHg 74%
15:00 +30°C° 1.5 mm 1 m/s 737 mmHg 75%
16:00 +29°C° 1.9 mm 2 m/s 738 mmHg 80%
17:00 +27°C° 1.9 mm 2 m/s 738 mmHg 85%
18:00 +26°C° 1.9 mm 3 m/s 738 mmHg 90%
19:00 +25°C° 1.5 mm 3 m/s 739 mmHg 92%
20:00 +25°C° 1.5 mm 2 m/s 740 mmHg 94%
21:00 +24°C° 1.5 mm 2 m/s 740 mmHg 95%
22:00 +24°C° 3.9 mm 3 m/s 740 mmHg 96%
23:00 +24°C° 3.9 mm 3 m/s 740 mmHg 96%

Après-demain, 23 Septembre, Mercredi

Heure Température Précipitation Vent Pression Humidité
00:00 +24°C° 3.9 mm 3 m/s 740 mmHg 96%
01:00 +24°C° 0.1 mm 3 m/s 740 mmHg 96%
02:00 +24°C° 0.1 mm 2 m/s 740 mmHg 96%
03:00 +24°C° 0.1 mm 2 m/s 739 mmHg 96%
04:00 +24°C° 0 mm 2 m/s 739 mmHg 96%
05:00 +24°C° 0 mm 2 m/s 740 mmHg 96%
06:00 +24°C° 0 mm 2 m/s 740 mmHg 96%
07:00 +24°C° 0 mm 2 m/s 740 mmHg 94%
08:00 +25°C° 0 mm 2 m/s 741 mmHg 92%
09:00 +26°C° 0 mm 2 m/s 741 mmHg 89%
10:00 +27°C° 0.1 mm 2 m/s 741 mmHg 85%
11:00 +28°C° 0.1 mm 2 m/s 740 mmHg 81%
12:00 +29°C° 0.1 mm 2 m/s 740 mmHg 76%
13:00 +29°C° 0.9 mm 2 m/s 739 mmHg 79%
14:00 +28°C° 0.9 mm 2 m/s 739 mmHg 81%
15:00 +28°C° 0.9 mm 2 m/s 738 mmHg 84%
16:00 +27°C° 0.1 mm 2 m/s 738 mmHg 86%
17:00 +27°C° 0.1 mm 2 m/s 739 mmHg 89%
18:00 +26°C° 0.1 mm 2 m/s 739 mmHg 92%
19:00 +25°C° 0 mm 2 m/s 740 mmHg 93%
20:00 +25°C° 0 mm 2 m/s 740 mmHg 93%
21:00 +24°C° 0 mm 2 m/s 741 mmHg 94%
22:00 +24°C° 0 mm 2 m/s 740 mmHg 95%
23:00 +24°C° 0 mm 2 m/s 740 mmHg 96%

24 Septembre, Jeudi

Heure Température Précipitation Vent Pression Humidité
00:00 +24°C° 0 mm 2 m/s 740 mmHg 97%
01:00 +24°C° 0 mm 1 m/s 740 mmHg 97%
02:00 +23°C° 0 mm 1 m/s 740 mmHg 97%
03:00 +23°C° 0 mm 1 m/s 739 mmHg 97%
04:00 +23°C° 0 mm 1 m/s 740 mmHg 97%
05:00 +23°C° 0 mm 1 m/s 740 mmHg 97%
06:00 +23°C° 0 mm 1 m/s 740 mmHg 96%
07:00 +25°C° 0 mm 1 m/s 741 mmHg 90%
08:00 +26°C° 0 mm 2 m/s 741 mmHg 84%
09:00 +28°C° 0 mm 3 m/s 741 mmHg 78%
10:00 +29°C° 0 mm 3 m/s 741 mmHg 74%
11:00 +30°C° 0 mm 3 m/s 740 mmHg 70%
12:00 +33°C° 0 mm 3 m/s 739 mmHg 66%
13:00 +33°C° 0 mm 3 m/s 739 mmHg 66%
14:00 +33°C° 0 mm 3 m/s 738 mmHg 65%
15:00 +32°C° 0 mm 2 m/s 738 mmHg 65%
16:00 +30°C° 0.1 mm 2 m/s 738 mmHg 72%
17:00 +29°C° 0.1 mm 2 m/s 738 mmHg 78%
18:00 +27°C° 0.1 mm 2 m/s 738 mmHg 84%
19:00 +27°C° 0 mm 2 m/s 739 mmHg 86%
20:00 +26°C° 0 mm 3 m/s 739 mmHg 87%
21:00 +25°C° 0 mm 3 m/s 740 mmHg 89%
22:00 +25°C° 0 mm 2 m/s 739 mmHg 91%
23:00 +25°C° 0 mm 2 m/s 739 mmHg 92%

25 Septembre, Vendredi

Heure Température Précipitation Vent Pression Humidité
00:00 +24°C° 0 mm 2 m/s 739 mmHg 93%
01:00 +24°C° 0.2 mm 2 m/s 739 mmHg 94%
02:00 +24°C° 0.2 mm 2 m/s 739 mmHg 94%
03:00 +24°C° 0.2 mm 2 m/s 739 mmHg 95%
04:00 +24°C° 0.4 mm 2 m/s 739 mmHg 95%
05:00 +24°C° 0.4 mm 1 m/s 739 mmHg 95%
06:00 +24°C° 0.4 mm 1 m/s 740 mmHg 96%
07:00 +25°C° 0.4 mm 1 m/s 740 mmHg 93%
08:00 +26°C° 0.4 mm 1 m/s 741 mmHg 90%
09:00 +26°C° 0.4 mm 1 m/s 741 mmHg 87%
10:00 +27°C° 0.7 mm 1 m/s 741 mmHg 84%
11:00 +28°C° 0.7 mm 1 m/s 740 mmHg 82%
12:00 +29°C° 0.7 mm 1 m/s 739 mmHg 79%
13:00 +29°C° 0.2 mm 1 m/s 738 mmHg 78%
14:00 +29°C° 0.2 mm 1 m/s 738 mmHg 78%
15:00 +29°C° 0.2 mm 1 m/s 737 mmHg 77%
16:00 +28°C° 0.4 mm 1 m/s 737 mmHg 81%
17:00 +27°C° 0.4 mm 2 m/s 738 mmHg 86%
18:00 +26°C° 0.4 mm 2 m/s 738 mmHg 90%
19:00 +26°C° 0.2 mm 2 m/s 738 mmHg 90%
20:00 +25°C° 0.2 mm 2 m/s 739 mmHg 91%
21:00 +25°C° 0.2 mm 2 m/s 739 mmHg 92%
22:00 +25°C° 0.1 mm 2 m/s 739 mmHg 93%
23:00 +25°C° 0.1 mm 2 m/s 739 mmHg 94%

26 Septembre, Samedi

Heure Température Précipitation Vent Pression Humidité
00:00 +24°C° 0.1 mm 2 m/s 739 mmHg 95%
01:00 +24°C° 0.2 mm 2 m/s 739 mmHg 95%
02:00 +24°C° 0.2 mm 2 m/s 738 mmHg 95%
03:00 +24°C° 0.2 mm 2 m/s 738 mmHg 96%
04:00 +24°C° 0.6 mm 1 m/s 738 mmHg 96%
05:00 +24°C° 0.6 mm 1 m/s 738 mmHg 97%
06:00 +24°C° 0.6 mm 1 m/s 738 mmHg 97%
07:00 +25°C° 0.2 mm 2 m/s 739 mmHg 94%
08:00 +25°C° 0.2 mm 2 m/s 739 mmHg 92%
09:00 +26°C° 0.2 mm 2 m/s 740 mmHg 89%
10:00 +27°C° 0.3 mm 2 m/s 739 mmHg 86%
11:00 +28°C° 0.3 mm 2 m/s 739 mmHg 82%
12:00 +29°C° 0.3 mm 2 m/s 738 mmHg 79%
13:00 +27°C° 1.6 mm 2 m/s 738 mmHg 84%
14:00 +26°C° 1.6 mm 2 m/s 737 mmHg 89%
15:00 +25°C° 1.6 mm 3 m/s 737 mmHg 94%
16:00 +25°C° 0.2 mm 2 m/s 737 mmHg 95%
17:00 +24°C° 0.2 mm 2 m/s 737 mmHg 95%
18:00 +24°C° 0.2 mm 1 m/s 738 mmHg 96%
19:00 +24°C° 0.1 mm 2 m/s 738 mmHg 96%
20:00 +24°C° 0.1 mm 2 m/s 739 mmHg 96%
21:00 +24°C° 0.1 mm 2 m/s 739 mmHg 95%
22:00 +24°C° 0 mm 2 m/s 739 mmHg 96%
23:00 +24°C° 0 mm 2 m/s 738 mmHg 96%
Voir plus